TimeAKST,TemperatureF,Dew PointF,Humidity,Sea Level PressureIn,VisibilityMPH,Wind Direction,Wind SpeedMPH,Gust SpeedMPH,PrecipitationIn,Events,Conditions,WindDirDegrees,DateUTC
12:53 AM,-29.9,-9999,N/A,30.16,10.0,NW,4.6,-,N/A,,Clear,320,2014-02-11 09:53:00
1:53 AM,-29.9,-9999,N/A,30.14,10.0,North,4.6,-,N/A,,Clear,10,2014-02-11 10:53:00
3:53 AM,-31.0,-9999,N/A,30.11,10.0,NNW,3.5,-,N/A,,Clear,330,2014-02-11 12:53:00
4:53 AM,-29.9,-9999,N/A,30.10,10.0,NW,5.8,-,N/A,,Clear,320,2014-02-11 13:53:00
5:53 AM,-32.1,-9999,N/A,30.11,10.0,Calm,Calm,-,0.00,,Clear,0,2014-02-11 14:53:00
6:53 AM,-35.0,-9999,N/A,30.10,10.0,North,3.5,-,N/A,,Clear,360,2014-02-11 15:53:00
7:53 AM,-34.1,-9999,N/A,30.11,10.0,Calm,Calm,-,N/A,,Clear,0,2014-02-11 16:53:00
8:53 AM,-35.0,-9999,N/A,30.10,10.0,Calm,Calm,-,N/A,,Clear,0,2014-02-11 17:53:00
9:53 AM,-29.9,-9999,N/A,30.07,10.0,NNW,3.5,-,N/A,,Clear,330,2014-02-11 18:53:00
10:53 AM,-20.9,-26.0,77,30.04,10.0,Calm,Calm,-,N/A,,Clear,0,2014-02-11 19:53:00
11:53 AM,-16.1,-23.1,71,30.01,10.0,Calm,Calm,-,0.00,,Clear,0,2014-02-11 20:53:00
12:53 PM,-16.1,-20.0,82,30.00,10.0,Calm,Calm,-,0.00,Snow,Light Snow,0,2014-02-11 21:53:00
1:53 PM,-13.0,-18.0,78,29.96,10.0,Calm,Calm,-,0.00,,Clear,0,2014-02-11 22:53:00
2:53 PM,-11.0,-15.0,83,29.92,10.0,Calm,Calm,-,N/A,,Clear,0,2014-02-11 23:53:00
3:53 PM,-11.0,-16.1,78,29.90,10.0,Calm,Calm,-,N/A,,Clear,0,2014-02-12 00:53:00
4:53 PM,-14.1,-18.9,79,29.87,10.0,Calm,Calm,-,N/A,,Clear,0,2014-02-12 01:53:00
5:53 PM,-18.9,-24.0,78,29.86,10.0,Calm,Calm,-,N/A,,Clear,0,2014-02-12 02:53:00
6:53 PM,-22.0,-27.0,77,29.85,10.0,Calm,Calm,-,N/A,,Clear,0,2014-02-12 03:53:00
7:53 PM,-26.0,-31.0,77,29.83,10.0,Calm,Calm,-,N/A,,Clear,0,2014-02-12 04:53:00
8:53 PM,-29.0,-34.1,77,29.82,8.0,Calm,Calm,-,N/A,,Partly Cloudy,0,2014-02-12 05:53:00
9:53 PM,-29.0,-34.1,77,29.79,10.0,Calm,Calm,-,N/A,,Clear,0,2014-02-12 06:53:00
10:53 PM,-29.9,-9999,N/A,29.75,10.0,NW,3.5,-,N/A,,Clear,320,2014-02-12 07:53:00
11:53 PM,-29.0,-34.1,77,29.72,10.0,North,3.5,-,N/A,,Clear,350,2014-02-12 08:53:00